Theta_e
308 309 310 313 315 316 317 318 319 320 320 320 319 318 318 317 318 318 315 315 317 319 317 314 314 315 324 332 330 331 321 318 323 327 331 335 336 336 337 335 336 338 336 335 335 335 336
309 309 311 314 316 317 319 319 319 319 319 319 319 318 317 317 318 317 316 316 318 319 316 314 315 315 330 331 328 327 327 321 325 329 333 335 335 334 335 335 337 336 335 335 337 338 340
310 312 314 316 318 319 318 318 318 318 318 318 318 317 316 316 317 318 316 318 319 317 315 315 316 321 328 328 328 325 324 323 327 331 334 334 334 334 335 335 335 336 335 334 337 341 340
312 314 316 318 319 318 317 317 317 317 317 317 317 317 316 316 317 318 316 319 317 315 315 316 314 327 328 324 328 325 324 325 327 329 330 332 333 335 336 335 335 336 335 335 333 334 334
314 316 318 318 316 316 317 316 316 317 317 317 317 316 315 316 317 318 316 316 315 315 315 314 327 331 326 322 326 327 326 327 327 328 330 328 333 337 336 337 336 334 335 334 333 331 332
316 318 318 315 314 316 316 316 316 317 317 317 316 314 315 316 317 317 317 317 319 320 324 325 326 328 327 325 326 327 326 328 327 330 332 336 337 338 337 337 337 335 332 332 332 331 334
316 316 314 313 315 315 316 317 317 317 317 316 314 312 314 316 316 316 319 324 331 333 332 334 328 329 328 328 324 326 327 327 328 330 336 336 338 338 337 336 333 333 331 332 332 330 333
315 314 311 314 315 316 317 317 317 316 315 313 311 311 313 315 317 317 320 329 329 328 331 329 328 328 327 327 326 326 326 327 330 331 333 336 335 336 335 332 331 332 331 333 331 331 331
311 310 312 314 314 315 316 316 315 314 312 310 309 309 313 315 316 322 327 328 327 327 331 330 328 328 327 326 325 326 327 327 326 328 331 335 334 333 332 330 331 332 332 331 331 330 330
309 313 314 314 314 313 315 315 314 311 309 308 309 310 313 315 320 324 326 328 327 327 336 329 328 328 327 327 325 326 326 327 327 327 328 330 333 332 330 329 331 331 331 330 330 332 334
310 314 315 314 314 313 314 314 312 309 308 308 309 313 314 315 318 323 328 327 327 328 338 328 327 327 327 327 327 326 326 327 327 328 329 329 331 332 330 329 330 330 331 331 331 331 332
311 314 315 314 314 313 314 313 310 309 308 308 313 315 318 320 320 323 323 326 328 333 337 328 329 327 328 328 326 326 326 327 329 326 328 328 328 328 329 329 329 330 330 331 332 331 332
312 314 315 315 314 313 314 312 309 308 308 313 316 318 318 317 327 323 324 328 333 335 333 333 329 327 327 327 327 326 325 326 327 327 326 326 327 328 328 329 330 331 332 334 335 330 335
315 315 315 315 314 313 313 311 308 308 310 315 318 320 322 319 323 323 325 333 336 330 332 332 332 329 327 328 328 326 326 327 327 327 329 327 329 329 331 331 333 333 334 334 335 334 336
319 317 315 316 314 313 313 310 308 308 313 315 320 324 326 326 322 323 330 335 330 330 335 334 334 330 329 328 329 327 327 327 327 329 332 333 337 334 334 334 334 335 335 334 332 334 335
321 319 316 316 315 314 313 310 308 308 315 316 321 329 330 327 324 325 331 331 330 332 334 334 335 333 330 329 329 328 328 329 328 329 332 334 339 335 334 333 333 334 336 338 344 342 338
320 321 318 317 316 315 313 310 307 309 316 320 323 334 327 325 325 329 330 329 328 331 332 335 335 336 334 330 330 330 332 331 331 331 332 332 333 336 335 335 343 339 336 341 338 341 344
320 320 320 317 317 316 313 311 307 310 316 322 330 335 325 324 329 329 329 329 321 330 332 334 336 335 334 333 330 332 332 333 334 335 334 332 332 335 336 337 336 334 338 343 340 349 350
320 319 320 319 317 316 313 311 307 309 315 318 336 334 326 325 331 330 329 330 328 329 332 334 335 336 336 334 333 332 332 334 334 335 335 334 333 336 338 337 335 335 336 337 337 336 340
320 319 319 320 319 317 315 312 308 309 315 316 336 334 330 328 330 332 330 329 327 328 332 334 336 337 338 338 338 337 337 334 334 335 339 336 335 335 347 345 344 344 339 339 339 338 338
321 319 318 320 320 318 316 312 309 309 316 318 334 336 334 332 331 329 330 331 328 329 331 334 336 337 337 339 338 338 337 335 334 334 335 336 338 340 342 342 341 339 339 339 339 338 339
321 320 319 319 320 319 317 313 310 309 319 324 333 334 334 334 334 334 327 331 331 329 333 335 337 335 337 338 338 339 338 338 338 337 338 337 339 340 342 338 337 338 337 338 337 337 336
322 321 319 319 319 320 318 315 312 308 317 325 324 329 333 332 333 333 332 332 332 332 333 335 335 335 336 334 334 334 334 335 337 338 338 338 338 341 342 339 339 339 337 337 337 338 337
321 319 319 319 319 320 319 317 313 310 307 320 323 326 335 339 332 333 333 333 332 333 335 333 335 337 331 329 331 332 331 332 333 334 333 336 339 339 340 340 344 338 337 336 336 332 331
321 320 319 319 320 319 319 318 315 312 308 316 322 323 333 338 332 333 332 332 332 331 332 332 329 329 329 332 334 334 334 335 335 334 334 333 334 338 341 340 338 337 335 332 332 331 330
320 319 319 319 320 320 320 318 317 314 311 313 323 320 326 335 333 330 333 333 334 334 333 331 329 328 330 333 334 337 337 336 336 336 333 332 333 336 338 339 339 337 332 331 330 329 331
320 320 318 318 319 320 320 319 318 316 313 312 320 320 323 332 331 329 333 334 332 334 335 333 331 331 328 333 334 334 333 331 333 335 334 333 332 334 337 337 336 335 333 331 330 341 334
319 319 318 317 316 317 319 320 318 317 314 311 318 319 319 327 330 327 327 331 330 331 334 332 331 331 331 333 333 332 330 331 332 331 333 334 333 332 332 334 336 334 332 332 340 335 333
315 316 316 315 315 315 316 318 318 317 316 312 319 319 318 320 327 325 324 324 325 325 328 330 331 333 332 332 331 330 331 330 331 331 333 332 334 340 337 342 338 334 335 334 333 334 332
Wind_Speed
13 13 13 13 13 14 16 17 18 19 20 21 22 23 23 23 23 22 23 23 20 13 7 5 5 5 4 9 5 2 9 15 11 10 13 7 5 6 7 2 6 5 6 5 6 4 5
13 13 13 13 14 15 17 18 18 19 20 21 22 23 24 25 23 23 24 24 18 8 4 4 3 5 6 11 4 3 11 15 12 12 11 8 5 5 5 1 7 4 3 3 4 5 4
13 13 13 14 15 17 18 19 19 19 20 21 23 24 25 25 24 24 25 22 9 3 2 2 2 3 10 4 3 6 12 15 11 12 9 1 6 11 5 5 3 7 4 7 8 4 6
14 14 14 15 16 18 19 20 19 19 20 22 23 24 25 26 24 23 24 14 4 1 1 2 3 5 2 5 3 6 9 9 8 7 7 2 5 11 10 6 12 9 8 8 7 8 3
14 14 15 17 18 19 20 20 20 19 20 22 23 25 26 25 23 22 19 6 2 1 1 1 4 8 4 6 9 9 10 11 11 9 5 3 9 14 8 15 12 6 7 3 10 5 6
15 15 17 18 19 20 21 21 19 19 21 22 24 26 26 24 23 22 12 4 4 2 3 6 10 7 8 11 11 7 9 8 12 10 9 10 12 14 14 12 6 9 4 0 5 7 8
16 17 19 20 20 21 21 20 19 20 21 22 25 26 26 23 22 21 6 4 6 7 14 9 8 5 6 7 6 10 10 14 14 12 15 15 13 13 11 12 8 3 5 6 2 7 1
17 18 20 21 21 22 21 20 20 21 22 24 25 26 25 21 21 12 4 7 7 6 8 9 6 7 4 7 8 10 13 12 15 16 17 13 12 13 9 3 7 8 8 5 2 4 7
20 20 20 21 21 22 22 21 22 23 23 25 26 26 24 20 19 4 9 7 3 9 7 11 9 12 11 10 9 14 14 14 13 16 16 17 9 5 2 7 9 13 11 9 6 5 7
20 21 21 21 22 23 23 23 23 24 25 26 26 26 22 19 6 5 8 4 6 5 6 12 12 7 7 10 7 14 18 8 9 14 14 13 8 5 9 11 9 14 8 1 6 11 8
20 22 22 23 24 25 24 24 25 26 27 27 27 25 21 15 14 7 4 4 7 6 6 15 14 12 13 10 18 11 11 7 11 10 9 12 11 7 12 12 7 12 6 7 6 10 10
20 22 23 24 24 25 25 26 26 28 29 29 28 26 20 4 6 11 6 7 7 7 3 9 11 13 14 12 12 14 12 10 7 5 11 14 4 6 14 12 7 10 10 15 16 10 12
20 21 23 25 25 26 26 27 28 30 31 32 29 23 15 8 0 3 6 9 7 11 11 11 15 18 17 11 13 13 16 15 10 11 12 15 13 14 10 13 12 14 16 13 12 7 3
20 22 24 26 26 27 27 28 30 32 33 34 27 13 8 10 5 6 8 8 10 3 10 14 15 16 15 15 12 15 14 14 16 14 9 12 15 13 12 15 14 11 17 10 6 5 4
20 22 24 26 27 28 28 30 32 33 35 35 14 3 8 4 10 8 8 10 11 5 5 9 12 16 14 13 6 13 14 15 14 14 11 8 9 5 6 12 11 8 11 9 14 11 11
20 22 24 26 28 29 29 31 34 35 35 28 8 9 6 5 10 11 8 17 7 6 4 9 14 13 14 17 11 13 14 13 10 12 14 3 7 11 8 10 11 15 4 2 6 7 12
20 20 23 25 28 30 30 31 34 37 35 16 6 6 5 8 11 7 10 15 5 6 7 9 14 10 14 16 15 15 15 8 8 12 9 12 12 3 10 14 9 18 10 7 12 7 4
22 19 22 25 27 30 30 31 33 37 36 7 8 5 10 12 8 10 12 10 5 9 10 9 9 12 14 12 16 14 11 7 5 5 12 15 11 11 9 5 3 10 3 15 8 7 8
21 20 21 24 26 30 30 31 32 35 30 11 5 4 8 12 7 9 12 4 10 10 11 9 10 10 6 8 8 10 9 10 3 8 4 5 10 13 9 14 7 11 11 8 14 10 9
19 20 20 22 25 28 30 31 30 32 29 5 5 5 6 8 12 12 5 9 14 13 9 6 8 5 9 8 3 8 4 3 5 7 8 5 15 17 1 8 8 17 6 7 10 11 13
17 18 19 21 24 26 29 30 30 30 26 3 5 3 6 6 11 10 5 8 11 11 13 8 8 14 15 12 11 11 12 7 6 4 5 8 16 13 13 26 21 16 9 3 11 12 11
15 17 17 19 22 24 28 29 30 31 22 5 6 5 5 9 3 7 5 11 14 12 10 11 13 14 5 7 4 8 10 9 8 8 9 12 12 5 11 5 10 11 9 8 11 9 10
16 15 15 18 20 22 24 27 28 30 20 6 12 9 6 3 9 10 11 11 11 4 3 12 10 10 6 9 7 5 8 5 4 8 7 7 10 5 12 7 7 11 11 12 9 4 9
16 14 14 16 19 20 21 24 25 25 24 9 10 10 7 10 6 2 3 3 9 6 5 4 5 3 6 4 3 5 4 3 5 7 8 7 8 10 12 6 12 2 6 6 5 4 3
13 13 13 15 17 18 18 21 23 23 22 10 10 7 6 10 5 4 5 5 4 7 5 9 8 6 3 5 6 6 9 9 11 12 9 11 11 12 12 14 14 12 9 4 3 8 8
12 13 14 14 15 15 15 18 21 22 22 13 6 8 6 7 4 5 6 5 4 9 8 8 6 4 3 4 5 6 10 13 8 8 5 15 12 11 12 12 15 9 12 8 5 10 9
13 13 13 14 14 14 14 16 18 21 21 16 6 8 8 8 4 7 4 5 6 7 2 5 3 3 4 7 8 10 11 7 10 12 8 7 9 13 12 13 6 9 9 6 5 5 7
14 15 13 13 14 14 14 13 16 18 19 18 7 6 9 5 6 5 5 6 2 4 6 6 5 7 5 5 8 8 5 8 7 13 4 8 7 10 10 14 12 12 7 3 7 7 5
14 14 12 13 13 13 14 12 13 16 17 15 6 7 10 7 7 9 7 5 4 6 7 0 6 3 6 4 2 5 4 6 6 10 9 8 4 6 7 6 8 10 4 8 6 6 3
Wind_Direction
22 18 16 12 8 3 357 354 352 350 349 347 347 347 346 345 344 340 337 333 327 320 304 291 292 307 312 222 65 52 188 181 185 223 238 260 299 302 34 54 176 341 19 356 16 324 54
16 15 12 7 1 356 353 350 348 347 346 344 343 343 342 343 342 340 336 330 324 316 293 277 289 311 253 245 81 89 159 175 203 216 227 246 22 338 283 353 340 9 302 40 4 41 84
12 10 7 1 357 352 349 347 346 346 345 343 341 341 340 340 340 338 335 330 324 301 258 267 281 295 257 13 121 135 156 180 198 220 239 154 320 298 346 236 55 272 138 131 33 67 29
7 5 1 357 353 348 347 345 343 343 343 342 340 339 338 338 337 337 336 336 336 302 262 266 267 263 302 129 158 178 186 191 200 216 277 355 290 285 270 310 232 253 212 106 57 15 4
4 359 358 354 350 347 346 344 342 341 341 340 339 337 335 335 335 335 333 338 356 60 245 186 251 230 192 151 206 195 199 194 193 206 216 268 265 271 278 247 238 201 85 45 123 49 320
1 357 354 351 348 347 345 343 343 340 340 339 337 334 333 334 333 332 325 303 274 209 258 248 267 255 200 206 170 199 201 244 190 196 211 229 237 248 226 246 14 53 355 296 27 53 41
357 353 352 350 349 347 345 345 345 341 339 337 335 333 332 332 330 328 315 274 209 197 219 285 140 269 138 129 168 201 187 199 201 208 218 202 229 230 244 35 356 341 316 284 37 100 164
354 352 352 351 351 351 350 349 345 342 340 336 334 331 332 332 328 318 284 260 38 349 287 198 235 257 244 189 184 188 184 195 203 211 222 227 224 265 41 306 265 265 261 253 114 89 265
356 352 353 356 357 354 352 349 345 342 339 335 334 330 330 332 327 262 265 308 320 331 253 159 196 206 181 202 205 171 200 221 196 216 214 236 212 72 237 220 235 235 254 23 331 319 241
360 358 359 358 356 352 349 346 344 341 338 336 333 330 330 331 298 319 261 199 297 307 263 145 181 183 179 222 188 161 209 208 211 220 214 219 205 196 222 244 262 279 56 273 256 268 220
3 4 1 357 355 351 348 346 344 341 338 336 332 327 323 321 302 261 35 268 302 246 253 153 141 131 162 216 133 189 196 208 229 226 209 211 232 220 237 245 272 281 12 296 267 264 274
2 1 359 356 353 350 348 346 343 341 338 334 330 325 316 312 239 253 289 278 256 231 206 155 148 182 182 217 189 142 181 250 334 234 218 268 201 241 231 234 241 273 275 256 236 230 235
0 359 358 356 354 351 349 347 344 341 338 333 329 317 291 250 308 292 250 239 225 250 131 151 173 172 196 183 166 177 193 200 200 205 199 215 226 211 228 247 233 230 251 250 227 192 189
358 358 357 356 355 352 350 348 344 342 339 333 328 307 281 221 249 254 227 227 255 246 193 152 173 172 199 170 187 188 189 207 227 254 215 207 187 198 192 231 268 210 264 277 243 245 89
356 356 356 356 355 352 351 349 346 343 342 334 332 271 224 249 209 210 229 225 220 210 121 185 184 182 203 177 190 198 208 218 190 226 275 216 126 153 235 220 245 232 250 351 309 205 230
351 353 354 354 354 353 352 351 348 345 344 334 321 234 144 189 181 203 234 253 316 339 332 286 198 200 198 182 213 204 189 211 202 199 262 302 149 188 156 220 231 279 343 18 357 333 272
344 348 353 354 354 354 353 352 350 347 346 335 247 228 116 160 174 217 230 238 238 199 240 249 242 193 224 182 212 192 179 147 211 174 239 266 257 133 172 222 114 266 239 343 195 236 249
340 345 352 353 354 354 354 354 354 351 350 332 283 241 152 167 206 221 235 247 8 266 203 259 292 266 234 179 196 209 213 170 96 268 204 232 281 218 207 63 247 291 172 199 293 82 327
336 342 349 351 353 354 355 355 356 355 355 324 261 101 166 209 238 214 241 243 239 241 227 216 232 255 287 174 214 231 194 81 189 228 298 237 241 262 221 185 201 252 244 280 317 298 243
329 337 343 349 352 354 355 355 356 357 348 322 273 199 153 212 272 287 238 231 216 225 291 265 294 230 213 235 225 196 163 124 208 243 15 307 264 269 158 8 16 300 261 266 301 299 326
325 332 337 344 349 353 355 356 356 356 346 285 242 317 14 201 221 236 266 292 226 194 222 213 216 229 207 204 197 188 158 147 181 132 218 254 265 325 139 179 191 265 303 276 290 305 308
319 327 333 338 345 351 355 357 359 359 348 262 320 343 340 288 233 272 194 243 240 217 190 204 251 216 249 235 191 183 188 192 166 174 227 236 265 218 288 278 282 279 265 285 291 298 288
319 321 327 335 340 348 354 358 2 5 11 338 355 296 273 223 245 218 221 234 229 189 183 292 219 190 153 43 28 23 352 10 89 268 220 272 273 228 270 256 265 263 280 239 270 348 306
316 321 323 330 336 341 349 357 2 6 10 318 357 307 272 275 233 249 27 233 248 188 208 128 291 111 75 259 233 236 241 233 253 252 268 239 259 276 268 267 254 340 32 2 307 306 254
309 315 318 321 326 333 344 352 359 1 3 340 336 338 310 289 3 193 215 204 168 178 163 98 76 70 165 238 256 232 235 234 241 237 262 265 256 259 253 260 263 188 181 191 247 279 188
297 300 308 312 321 329 339 348 355 359 358 352 332 335 293 297 73 354 301 297 190 158 157 125 83 28 285 274 242 254 260 285 273 172 219 271 238 254 246 250 270 91 91 90 63 264 147
294 298 304 312 319 326 332 341 348 354 356 350 306 347 292 287 64 336 321 354 338 317 93 140 101 196 265 271 251 260 263 285 266 263 242 236 246 236 235 250 232 111 129 135 250 79 109
291 297 301 307 311 319 323 333 340 347 355 356 298 347 341 304 322 349 359 348 297 255 306 80 223 200 266 262 266 276 243 266 247 258 299 237 220 233 241 252 224 133 151 259 93 124 105
293 293 294 302 309 312 315 323 332 340 349 358 298 344 322 263 335 313 291 279 299 345 323 154 346 335 1 297 310 296 265 256 271 260 171 252 322 342 12 52 110 149 49 109 145 144 136